User: anonymous   Login
Location: Oshawa
(43.9000°N, 78.8670°W)
Time: 05:11:21
(UTC-04:00)
Language:

Cosmos 1821 Rocket - Orbit

View from above orbital plane
View from above orbital plane
View from above satellite
View from above satellite

Ground track
Ground track

The orbit data is extracted from the following two-line orbital elements,

1 17526U 87017B   16211.83511206  .00000058  00000-0  42488-4 0  9994
2 17526  82.9030 281.0998 0041405 137.1130   0.2610 13.76789251461999
Epoch (UTC): 29 July 2016 20:02:33
Eccentricity: 0.0041405
inclination: 82.9030°
perigee height: 945 km
apogee height: 1006 km
right ascension of ascending node: 281.0998°
argument of perigee: 137.1130°
revolutions per day: 13.76789251
mean anomaly at epoch: 0.2610°
orbit number at epoch: 46199

The dashed part of the orbit path shows where the satellite is in the earth's shadow,  

DLR